Погода в Крещенке

Погода в Крещенке : погода сейчас, прогноз погоды и архив. Всё, что Вы хотите узнать о погоде в Крещенке!

Хотите узнать прогноз погоды в Крещенке? Тогда Вам сюда: Погода в Крещенке

Поиск расширенной информации на нашем сайте:

Другие новости

Новости СМИ2

Главная страница сайта

Новости сайта

03.07.2017

Напоминаем, что на нашем специализированном сайте Метеоцентр.Азия вы можете получить высокодетализированные автоматические прогнозы погоды по пунктам России, СНГ и мира в авиационном формате (включающие направление и скорость ветра, видимость, явления погоды, количество и форму облачности, нижнюю и верхнюю границу облачности).

Рекомендуем: Подключение к Таксик приложения на google play Таксик.

Погода в Крещенке - сегодня

Время (UTC), дата Ветер
(°,м/с) 
Видим.   Явления Облачность Т
(°С)
Тd
(°С)
f(%) Тe
(°С)
Pmin
(гПа)
dP
(гПа)
Po
(мм)
O2
(г/м3)
Тmin Tmax R s Состояние
почвы
03 21.09.17 280 (З) 4000 м  в посл. час туман{ливн. осадки}  10/10 300 м 
[St]
+8.3 +7.6 95 +8  1005  -1.3  742  289           
06 21.09.17 300 (СЗ) 20000 м  в посл. час ливневой дождь{туман}  10/10 300 м кучево-дожд. 
[Cb cap]
+8.5 +7.5 93 +8  1005.1  0.1  742  289           
09 21.09.17 330 (СЗ) 10 км  слаб. ливневой дождь  10/10 300 м кучево-дожд. 
[Cb cap]
+8 +6.5 90 +7  1006.4  1.3  743  290           
12 21.09.17 340 (С) 20000 м  {ливн. осадки}  10/10 300 м кучево-дожд. 
[Cb cap]
+7.5 +5.5 87 +7  1008.7  2.2  745  291    +8.6  0.4     
15 21.09.17 340 (С) 10 км  слаб. ливневой дождь  10/10 300 м кучево-дожд. 
[Cb cap]
+7 +5.6 91 +6  1009.8  746  292           
18 21.09.17 330 (СЗ) 20000 м  в посл. час ливневой дождь  10/10 300 м кучево-дожд. 
[Cb cap]
+6.8 +5.3 90 +6  1010.4  0.6  746  292           
21 21.09.17 320 (СЗ) 10 км  слаб. ливневой дождь  10/10 300 м кучево-дожд. 
[Cb cap]
+6.4 +5.1 91 +6  1011.3  0.9  747  293           
00 22.09.17 330 (СЗ) 20000 м  в посл. час ливневой дождь  10/10 300 м кучево-дожд. 
[Cb cap]
+5.3 +3.7 89 +4  1012.5  1.1  748  295  +5.3      влажная 
03 22.09.17 340 (С) 20000 м    9/9 300 м кучево-дожд. 
[Cb cap]
+5.4 +2.2 80 +4  1013.8  1.2  748  295  +4.9         
06 22.09.17 320 (СЗ) 20000 м    9/9 300 м кучево-дожд. 
[Cb cap]
+5.9 +1.9 75 +4  1014.1  0.4  749  295           
09 22.09.17 310 (СЗ) 20000 м    10/10 300 м кучево-дожд. 
[Cb cap]
+5.8 +1.5 74 +6  1014.2  0.1  749  295           
12 22.09.17 300 (СЗ) 20000 м  {ливн. осадки}  9/9 300 м кучево-дожд. 
[Cb cap]
+5.2 +0.8 73 +5  1014.9  0.7  749  296    +7.5  0.0     
15 22.09.17 340 (С) 20000 м  {ливн. осадки}  10/10 300 м кучево-дожд. 
[Cb cap]
+3 +1.1 87 +2  1015.6  0.5  750  299           
18 22.09.17 340 (С) 20000 м  {ливн. осадки}  10/10 300 м кучево-дожд. 
[Cb cap]
+2.3 +0.6 88 +2  1015.6  750  299           
21 22.09.17 360 (С) 10 км  слаб. ливневой дождь  10/10 300 м кучево-дожд. 
[Cb cap]
+0.8 -0.6 90 -1  1015.8  0.1  750  301           
00 23.09.17 330 (СЗ) 20000 м  {ливн. осадки}  9/9 300 м кучево-дожд. 
[Cb cap]
-0.5 -1.9 90 -1  1016.2  0.3  750  303  -0.6    0.7    влажная 
03 23.09.17 320 (СЗ) 10 км  слаб. ливневой снег  10/10 300 м кучево-дожд. 
[Cb cap]
-0.3 -1.8 90 -1  1016.2  750  303  -0.6         
06 23.09.17 330 (СЗ) 20000 м  {ливн. осадки}  9/9 300 м кучево-дожд. 
[Cb cap]
+1.3 -1.6 81 -1  1015.8  -0.3  750  301           
09 23.09.17 360 (С) 10 км  слаб. ливневой снег  9/9 300 м кучево-дожд. 
[Cb cap]
+0.3 -0.9 92 1016.2  0.3  750  302           
12 23.09.17 320 (СЗ) 20000 м  в посл. час ливневой снег  10/10 300 м кучево-дожд. 
[Cb cap]
+0.4 -0.6 93 -1  1017.7  1.5  751  302    +2     
15 23.09.17 330 (СЗ) 10 км  слаб. ливневой снег  10/10 300 м кучево-дожд. 
[Cb cap]
+0.3 -0.7 93 1019  1.3  752  303           
18 23.09.17 330 (СЗ) 10 км  слаб. ливневой снег  10/10 300 м кучево-дожд. 
[Cb cap]
+0.4 -0.6 93 +1  1020.2  1.2  753  303           
21 23.09.17 330 (СЗ) 10 км  слаб. ливневой снег  10/10 300 м кучево-дожд. 
[Cb cap]
+0.5 -0.5 93 +1  1021.6  1.4  754  303           
00 24.09.17 300 (СЗ) 20000 м  {ливн. осадки}  10/10 300 м кучево-дожд. 
[Cb cap]
+0.4 -0.5 94 +1  1023.5  1.8  755  304  +0.3      влажная 
03 24.09.17 300 (СЗ) 20000 м    10/10 300 м кучево-дожд. 
[Cb cap]
+1.3 +0.4 94 +1  1025.2  1.8  757  303           
Время (UTC), дата Ветер
(°,м/с) 
Видим.   Явления Облачность Т
(°С)
Тd
(°С)
f(%) Тe
(°С)
Pmin
(гПа)
dP
(гПа)
Po
(мм)
O2
(г/м3)
Тmin Tmax R s Состояние
почвы

Для получения пояснительной информации подведите курсор к названию столбца.

ПОГОДА в Крещенке - архив

Всё, что Вы хотите узнать о погоде в Крещенке - удобно и подробно!

Выберите нужную дату (начиная с 1 января 2015* года) и нажмите кнопку "Найти".
Будут отображены архивные сводки погоды по пункту Крещенка, начиная с указанной даты.


Отображать данные в формате CSV (для использования в таблицах Excel)


Внимание! Наш архив погоды предназначен исключительно для личного некоммерческого использования в познавательных целях. Если Вам необходимы официальные справки о состоянии погоды (для производственных, юридических, коммерческих и т.п. целей), обращайтесь в органы Росгидромета.

*Примечание: данная дата относится к архиву по метеостанциям СССР (Россия, СНГ, Балтия).
Архив по метеостанциям Зарубежной Европы и Азии (кроме Китая) хранится 10 дней, по другим регионам земного шара (Китай, Африка, Америка, Австралия, Океания) - 1 день.

Крещенка - район местоположения метеостанции


Название, широта, долгота, высота метеостанции:
Крещенка 55.9°ш. 80°д. 129 м над ур. моря [Российская Федерация]

Дополнительная информация

В oтличие oт бoльшинства пoгoдных сайтoв мы публикуем пoдрoбную метеoинфoрмацию в детальнoм прoфессиoнальнoм фoрмате.

Характеристики температуры и влажнoсти вoздуха измеряются на высoте 2 м в тени вдали oт зданий и деревьев.
Скoрoсть ветра измеряется на высoте 10 м (на урoвне рoста челoвека скoрoсть ветра ниже в 1.5-2 раза). Если метеoстанция нахoдится в гoрoде или в лесу, тo скoрoсть ветра занижена на 2-4 м/с пo сравнению с oткрытым местoм. Скoрoсть ветра над акватoриями крупных рек и oзёр, а также на вершинах хoлмoв на 2-5 м/с выше, чем в oбычных услoвиях.
Атмoсфернoе давление в разных тoчках местнoсти мoжет значительнo oтличаться oт давления на метеoстанции, в зависимoсти oт услoвий рельефа (при пoдъёме на 10 м давление пoнижается примернo на 1 мм рт.ст.).